Terug naar catalogus

FENGYUN 1C DEB

ActiefSSO
NORAD 30547·DEBRIS·🇨🇳 China

Gelanceerd May 10, 1999 vanaf Taiyuan Satellite Launch Center

Loading…

Volgende Passages (komende 24 uur)

TLE

VersSource: Space-Track

Epoch: Sep 14, 2026, 08:38 UTC

1 30547U 99025AKM 26257.36018646  .00000344  00000-0  12260-3 0  9995
2 30547  98.8754 114.9322 0096118 123.8942  48.2125 14.38094032 26811

Volg FENGYUN 1C DEB in realtime met AllMySat

Download on the App Store